Location: La Silve
(44.2414°N, 5.8889°E)
Time: 08:14:55
(UTC+00:00)

CENTAUR R/B - Pass Details

Date: 17 April 2021
Orbit: 742 x 1446 km, 63.4° (Epoch: 18 April)

Event Time Altitude Azimuth Distance (km) Brightness Sun altitude
Rises 19:29:47 0° 318° (NW) 4,245 7.3 -11.8°
Reaches altitude 10° 19:32:40 10° 312° (NW) 3,355 6.7 -12.3°
Maximum altitude 19:40:20 42° 245° (WSW) 1,921 4.3 -13.5°
Drops below altitude 10° 19:48:29 10° 179° (S) 3,552 5.1 -14.7°
Sets 19:51:37 0° 173° (S) 4,515 5.6 -15.2°
